{"data":{"norad_id":63580,"intl_designator":"2025-076M","name":"STARLINK-33752","alt_names":[],"object_type":"PAYLOAD","status":"ACTIVE","operator":null,"country":"US","launch_date":"2025-04-14","launch_site_code":"AFETR","launch_vehicle":null,"mission":null,"orbit_class":"UNKNOWN","rcs_meters":null,"size_class":null,"mass_kg":null,"dimensions":null,"purposes":["comms"],"wikipedia_slug":null,"has_3d_model":false,"image_url":null,"decayed_at":null,"tle_current":{"epoch":"2026-09-20T10:34:08.662656Z","epoch_age_seconds":157741,"freshness":"FRESH","line1":"1 63580U 25076M   26263.44037804  .00016619  00000+0  61182-3 0  9994","line2":"2 63580  43.0026 301.9641 0002425 272.6868  87.3707 15.27592853 81610","mean_motion":15.27592853,"eccentricity":0.0002425,"inclination_deg":43.0026,"raan_deg":301.9641,"arg_perigee_deg":272.6868,"mean_anomaly_deg":87.3707,"bstar":0.00061182,"rev_number":8161,"period_min":94.265955563488,"perigee_km":481.34678150828,"apogee_km":484.67443809904,"semimajor_km":6861.1476098037,"source":"CELESTRAK","updated_at":"2026-09-21T09:00:35.046817Z"}}}